[[{"header":{"parameterUnit":"m.s-1","parameterCategory":1,"la1":30.2991,"la2":30.254,"lo1":-89.0895,"lo2":-89.0444,"dy":0.0017,"dx":0.0017,"nx":28,"ny":28,"refTime":"2023-10-09T03:00:00:Z","depth":0,"parameterNumber":2,"parameterNumberName":"U-component_of_WINDS"},"data":[0,0,0,0,0,0,0,0,0,0,0,0,0,0,0,0,0,0,0,0,0,0,0,0,0,0,0,0,0,0,0,0,0,0,0,0,0,0,0,0,0,0,0,0,0,0,0,0,0,0,0,0,0,0,0,0,0,0,-1.3529,-1.3529,0,-1.3588,-1.3589,-1.359,-1.3575,-1.3573,-1.3572,-1.3571,-1.363,-1.3633,-1.3635,0,0,0,0,0,0,0,0,0,0,0,0,0,-1.3401,-1.3404,-1.3529,-1.353,-1.353,-1.3588,-1.3589,-1.359,-1.3575,-1.3573,-1.3572,-1.3571,-1.3629,-1.3632,-1.3636,0,0,0,0,0,0,0,0,0,0,0,0,0,-1.3458,-1.3405,-1.3529,-1.353,-1.353,-1.3588,-1.3589,-1.359,-1.3575,-1.3573,-1.3571,-1.357,-1.3628,-1.3632,-1.3636,-1.3696,0,0,-1.3648,-1.365,0,0,0,0,0,0,0,0,-1.3455,-1.3463,-1.3529,-1.353,-1.3531,-1.3572,-1.3566,-1.3625,-1.3575,-1.3558,-1.3571,-1.3569,-1.3612,-1.3617,-1.3632,-1.3699,-1.3701,-1.3649,-1.3651,-1.3653,-1.3654,0,0,0,0,0,0,0,-1.3451,-1.346,-1.3552,-1.353,-1.3531,-1.3527,-1.3533,-1.3577,-1.3594,-1.3559,-1.3558,-1.3566,-1.3612,-1.3629,-1.3634,-1.3702,-1.3649,-1.3652,-1.3655,-1.3656,-1.3822,-1.3823,0,0,0,0,0,0,-1.3447,-1.3457,-1.355,-1.3554,-1.3488,-1.3531,-1.3538,-1.3561,-1.3594,-1.3597,-1.3567,-1.3565,-1.3623,-1.3629,-1.3636,-1.3709,-1.3653,-1.3657,-1.3659,-1.382,-1.3822,-1.3824,0,0,0,0,0,0,-1.3444,-1.3455,-1.3548,-1.3505,-1.3517,-1.3535,-1.3561,-1.3563,-1.3579,-1.36,-1.3602,-1.3581,-1.3621,-1.363,-1.3681,-1.371,-1.3658,-1.3662,-1.3817,-1.382,-1.3823,-1.3855,0,0,0,0,0,0,-1.344,-1.3454,-1.3477,-1.3506,-1.3519,-1.3593,-1.3563,-1.3565,-1.3586,-1.3584,-1.3613,-1.3616,-1.3621,-1.3676,-1.3685,-1.3715,-1.3665,-1.3815,-1.3819,-1.3822,-1.3851,-1.3858,-1.3865,0,0,0,0,0,-1.3436,-1.3483,-1.3478,-1.349,-1.3548,-1.3595,-1.3602,-1.3607,-1.3588,-1.3612,-1.3625,-1.3615,-1.3706,-1.3681,-1.3692,-1.3723,-1.3813,-1.3817,-1.3822,-1.3848,-1.3857,-1.3864,0,0,0,0,0,0,-1.3456,-1.3487,-1.3482,-1.354,-1.3565,-1.3592,-1.3621,-1.3616,-1.3646,-1.3643,-1.3647,-1.3654,-1.3707,-1.372,-1.3692,-1.3783,-1.3757,-1.3763,-1.3773,-1.3781,-1.3788,-1.3784,-1.3668,0,0,0,0,0,-1.3467,-1.3503,-1.3527,-1.3576,-1.3589,-1.3603,-1.3623,-1.3625,-1.3651,-1.3661,-1.3679,-1.3704,-1.3738,-1.376,-1.3793,-1.3853,-1.386,-1.388,-1.3887,-1.3892,-1.3898,-1.3932,-1.3942,-1.3839,-1.3839,-1.3839,0,0,-1.3491,-1.3512,-1.3534,-1.3581,-1.36,-1.3637,-1.3612,-1.3651,-1.3679,-1.3667,-1.3717,-1.3731,-1.3759,-1.3816,-1.3841,-1.3828,-1.3928,-1.3898,-1.3902,-1.3905,-1.3938,-1.3947,-1.3956,-1.3842,-1.3841,-1.3841,0,0,-1.3552,-1.3571,-1.3615,-1.3635,-1.3666,-1.3675,-1.3686,-1.3714,-1.3723,-1.3774,-1.3766,-1.3798,-1.3857,-1.3878,-1.3896,-1.3968,-1.396,-1.3978,-1.4013,-1.4046,-1.4055,-1.4062,-1.4088,-1.4097,-1.3984,-1.3984,-1.3984,0,-1.3577,-1.3632,-1.3637,-1.3678,-1.3699,-1.3692,-1.3736,-1.3755,-1.3795,-1.381,-1.3795,-1.3869,-1.3888,-1.395,-1.3967,-1.3982,-1.3994,-1.3975,-1.4053,-1.406,-1.4067,-1.4092,-1.4102,-1.3986,-1.3986,-1.3986,-1.3985,0,-1.3662,-1.3701,-1.3732,-1.3771,-1.3796,-1.3838,-1.385,-1.3874,-1.3874,-1.3885,-1.3937,-1.3959,-1.3997,-1.4012,-1.4011,-1.4074,-1.4065,-1.4052,-1.4025,-1.4079,-1.4103,-1.4112,-1.3989,-1.3988,-1.3988,-1.3987,0,0,-1.3737,-1.378,-1.3791,-1.381,-1.3844,-1.3873,-1.3915,-1.3953,-1.3974,-1.4002,-1.4038,-1.4088,-1.4077,-1.4098,-1.41,-1.4129,-1.4185,-1.4112,-1.4113,-1.4125,-1.4257,-1.4267,-1.4278,-1.4181,-1.4182,-1.4184,-1.4255,0,-1.3802,-1.3877,-1.3884,-1.3951,-1.3987,-1.3981,-1.4018,-1.4043,-1.4054,-1.4087,-1.4099,-1.4136,-1.4117,-1.413,-1.4158,-1.4172,-1.4212,-1.4167,-1.4214,-1.4216,-1.4208,-1.429,-1.4301,-1.4367,-1.4264,-1.4265,-1.4267,0,-1.3888,-1.3919,-1.3991,-1.4021,-1.4036,-1.4069,-1.4105,-1.4136,-1.4164,-1.4171,-1.4195,-1.4194,-1.4237,-1.4209,-1.427,-1.4239,-1.4259,-1.4269,-1.4272,-1.4276,-1.4245,-1.4298,-1.4388,-1.4398,-1.4281,-1.428,-1.4279,0,-1.3936,-1.3997,-1.4047,-1.4063,-1.4099,-1.4123,-1.4139,-1.4166,-1.4188,-1.4219,-1.4234,-1.427,-1.4289,-1.4317,-1.4326,-1.4304,-1.4386,-1.4358,-1.4393,-1.4393,-1.4411,-1.441,-1.4506,-1.4423,-1.4423,-1.4422,-1.4422,0,-1.4009,-1.4053,-1.407,-1.4101,-1.4151,-1.4158,-1.4206,-1.4221,-1.4245,-1.4279,-1.4276,-1.4308,-1.4317,-1.4351,-1.4358,-1.4408,-1.4416,-1.4423,-1.4424,-1.4424,-1.4423,-1.4437,-1.4433,-1.4425,-1.4424,-1.4424,-1.4423,0,-1.4071,-1.4085,-1.414,-1.417,-1.4179,-1.4214,-1.424,-1.427,-1.4282,-1.4325,-1.4335,-1.4354,-1.4393,-1.4405,-1.4452,-1.4457,-1.4516,-1.4512,-1.4506,-1.4507,-1.4541,-1.4538,-1.465,-1.4665,-1.4571,-1.4572,-1.4573,0,-1.4117,-1.4151,-1.4185,-1.4208,-1.4226,-1.4262,-1.4286,-1.4295,-1.4319,-1.4355,-1.4381,-1.4421,-1.4453,-1.4517,-1.4534,-1.4571,-1.4569,-1.4606,-1.4574,-1.4573,-1.457,-1.4569,-1.4572,-1.4611,-1.4612,-1.4613,-1.4614,0,-1.4196,-1.4202,-1.4236,-1.4273,-1.4302,-1.4331,-1.436,-1.4379,-1.4391,-1.4419,-1.4461,-1.4486,-1.4535,-1.4575,-1.4612,-1.4628,-1.4624,-1.4624,-1.4634,-1.4634,-1.4629,-1.4633,-1.4523,-1.4621,-1.462,-1.462,-1.4619,-1.4619,-1.4252,-1.4283,-1.4312,-1.4351,-1.4374,-1.4401,-1.4431,-1.4447,-1.4482,-1.4523,-1.4526,-1.4571,-1.4599,-1.4649,-1.4668,-1.4703,-1.4692,-1.4707,-1.4711,-1.4714,-1.4718,-1.4623,-1.471,-1.471,-1.4709,-1.4709,-1.4709,0,-1.4333,-1.4352,-1.4387,-1.4428,-1.4459,-1.4452,-1.4484,-1.451,-1.455,-1.4577,-1.4609,-1.4657,-1.4696,-1.4717,-1.4755,-1.4779,-1.4778,-1.4789,-1.4788,-1.4792,-1.4724,-1.4712,-1.479,-1.479,-1.479,-1.479,-1.479,-1.479,-1.4378,-1.443,-1.4439,-1.4502,-1.452,-1.4565,-1.4583,-1.4609,-1.4631,-1.4685,-1.4717,-1.4731,-1.4756,-1.4796,-1.4832,-1.4837,-1.4852,-1.4864,-1.4868,-1.4805,-1.4797,-1.4789,-1.4777,-1.4867,-1.4867,-1.4933,-1.4933,-1.4934]},{"header":{"parameterUnit":"m.s-1","parameterCategory":1,"la1":30.2991,"la2":30.254,"lo1":-89.0895,"lo2":-89.0444,"dy":0.0017,"dx":0.0017,"nx":28,"ny":28,"refTime":"2023-10-09T03:00:00:Z","depth":0,"parameterNumber":3,"parameterNumberName":"V-component_of_WINDS"},"data":[0,0,0,0,0,0,0,0,0,0,0,0,0,0,0,0,0,0,0,0,0,0,0,0,0,0,0,0,0,0,0,0,0,0,0,0,0,0,0,0,0,0,0,0,0,0,0,0,0,0,0,0,0,0,0,0,0,0,2.7714,2.7713,0,2.7677,2.7677,2.7676,2.7643,2.7642,2.7642,2.7641,2.7602,2.7601,2.76,0,0,0,0,0,0,0,0,0,0,0,0,0,2.7752,2.7752,2.7714,2.7713,2.7713,2.7677,2.7677,2.7676,2.7643,2.7642,2.7642,2.7641,2.7602,2.7601,2.76,0,0,0,0,0,0,0,0,0,0,0,0,0,2.7728,2.7752,2.7714,2.7692,2.7689,2.7677,2.7677,2.7676,2.7643,2.7642,2.7642,2.7641,2.7602,2.7601,2.76,2.7606,0,0,2.7597,2.7596,0,0,0,0,0,0,0,0,2.7729,2.7726,2.7695,2.7693,2.7691,2.7664,2.7676,2.7652,2.7643,2.766,2.7641,2.7641,2.7623,2.762,2.7614,2.7604,2.7602,2.7597,2.7596,2.7596,2.7595,0,0,0,0,0,0,0,2.7731,2.7728,2.7699,2.7695,2.7692,2.7683,2.7679,2.7671,2.7645,2.7659,2.7656,2.7653,2.7621,2.7615,2.7613,2.7602,2.7597,2.7596,2.7595,2.7595,2.7594,2.7595,0,0,0,0,0,0,2.7736,2.7729,2.77,2.7698,2.7709,2.7683,2.7678,2.7673,2.7645,2.7641,2.7653,2.7651,2.7617,2.7614,2.7612,2.7616,2.7596,2.7595,2.7594,2.7593,2.7594,2.7595,0,0,0,0,0,0,2.7737,2.7734,2.7702,2.7713,2.7708,2.7683,2.7677,2.7673,2.7667,2.7641,2.7636,2.7652,2.7617,2.7613,2.7608,2.7614,2.7594,2.7593,2.7593,2.7594,2.7595,2.7626,0,0,0,0,0,0,2.7738,2.7734,2.7737,2.7713,2.7708,2.7699,2.7678,2.7672,2.7665,2.7662,2.7639,2.7634,2.7616,2.7609,2.7607,2.7613,2.7593,2.7592,2.7593,2.7594,2.7624,2.7628,2.7631,0,0,0,0,0,2.774,2.7747,2.7737,2.7734,2.771,2.77,2.7696,2.7676,2.7666,2.7668,2.7652,2.7635,2.7614,2.7609,2.7606,2.7611,2.7591,2.7593,2.7594,2.7623,2.7627,2.7631,0,0,0,0,0,0,2.777,2.7743,2.7732,2.7732,2.7718,2.7694,2.7696,2.7681,2.767,2.7668,2.7642,2.7637,2.7635,2.7622,2.7617,2.7616,2.7601,2.7601,2.7623,2.7627,2.7631,2.7633,2.7592,0,0,0,0,0,2.7778,2.7772,2.7748,2.775,2.7744,2.7721,2.7716,2.7701,2.7686,2.768,2.7663,2.7648,2.7638,2.7632,2.7622,2.7623,2.7616,2.7625,2.7628,2.7631,2.7632,2.7631,2.7634,2.7599,2.7599,2.7599,0,0,2.7791,2.7776,2.7773,2.7755,2.7743,2.7737,2.7716,2.7711,2.7706,2.7679,2.7673,2.766,2.7642,2.764,2.7638,2.7629,2.764,2.7633,2.7635,2.7634,2.7632,2.7636,2.7639,2.76,2.76,2.76,0,0,2.7813,2.7801,2.7801,2.779,2.7772,2.7757,2.7758,2.7735,2.7726,2.772,2.77,2.7693,2.7677,2.7665,2.7656,2.7675,2.7659,2.7672,2.7689,2.7688,2.7691,2.7693,2.7699,2.7702,2.7673,2.7673,2.7673,0,2.7832,2.7823,2.7803,2.7799,2.7791,2.7768,2.7767,2.7757,2.7737,2.7732,2.7723,2.7702,2.7688,2.7683,2.7687,2.7682,2.768,2.7674,2.7693,2.7695,2.7696,2.7702,2.7704,2.7674,2.7674,2.7674,2.7674,0,2.7847,2.7841,2.7843,2.7825,2.7818,2.7816,2.7795,2.779,2.7776,2.7762,2.7756,2.7739,2.7724,2.7722,2.7709,2.7715,2.771,2.7698,2.7682,2.7702,2.7706,2.7708,2.7677,2.7676,2.7676,2.7675,0,0,2.7886,2.7858,2.7859,2.785,2.783,2.7824,2.7821,2.7808,2.7804,2.7791,2.7787,2.7774,2.7762,2.7753,2.7738,2.7738,2.7753,2.7725,2.7724,2.773,2.7758,2.7767,2.777,2.7743,2.7743,2.7743,2.7759,0,2.7904,2.7897,2.7879,2.7878,2.7872,2.785,2.7847,2.7833,2.782,2.7813,2.7798,2.7789,2.7775,2.7769,2.7768,2.7751,2.7758,2.775,2.7738,2.7737,2.7742,2.7772,2.7781,2.7797,2.7761,2.7761,2.7761,0,2.7924,2.7913,2.7911,2.7891,2.7888,2.7886,2.7872,2.7866,2.785,2.784,2.7831,2.7814,2.7809,2.7795,2.7787,2.7782,2.7776,2.7768,2.7768,2.7765,2.775,2.7769,2.7802,2.7804,2.7764,2.7764,2.7764,0,2.7952,2.7937,2.7934,2.7928,2.7904,2.7903,2.7893,2.7877,2.787,2.7858,2.7854,2.7841,2.7834,2.7824,2.7805,2.7797,2.7799,2.7783,2.779,2.779,2.779,2.779,2.7821,2.7788,2.7788,2.7788,2.7788,0,2.7973,2.7973,2.7946,2.7944,2.7943,2.7922,2.7922,2.7909,2.7895,2.789,2.787,2.7866,2.7841,2.7833,2.7818,2.7813,2.781,2.7801,2.7797,2.7803,2.7804,2.7798,2.7796,2.7788,2.7788,2.7788,2.7788,0,2.8004,2.7986,2.7981,2.796,2.7955,2.7955,2.7936,2.7933,2.7919,2.7913,2.791,2.7888,2.7878,2.7858,2.7842,2.7832,2.783,2.7823,2.7836,2.7833,2.784,2.784,2.7868,2.787,2.7836,2.7837,2.7837,0,2.8018,2.8017,2.7996,2.7992,2.7983,2.7976,2.7969,2.7949,2.7943,2.7925,2.7924,2.7913,2.7903,2.7888,2.787,2.7857,2.785,2.786,2.7847,2.7853,2.7849,2.7849,2.7848,2.7863,2.7863,2.7864,2.7864,0,2.8045,2.8037,2.8028,2.8017,2.801,2.8,2.7989,2.7986,2.7963,2.7957,2.7947,2.7939,2.7924,2.7912,2.7898,2.7887,2.7871,2.7869,2.7869,2.7874,2.7881,2.7877,2.7843,2.7868,2.7867,2.7867,2.7867,2.7867,2.8068,2.8066,2.8051,2.8042,2.8032,2.8022,2.8018,2.8005,2.7996,2.7983,2.7971,2.7962,2.7946,2.7925,2.7915,2.7907,2.79,2.7901,2.7901,2.7901,2.7904,2.7884,2.7904,2.7904,2.7904,2.7904,2.7904,0,2.8093,2.8083,2.8075,2.8061,2.8054,2.8041,2.8028,2.8023,2.8016,2.8003,2.7994,2.7982,2.7972,2.7953,2.7941,2.7938,2.793,2.7935,2.7935,2.7932,2.7911,2.7912,2.7941,2.7941,2.7941,2.7941,2.7941,2.7941,2.8106,2.8102,2.8092,2.8083,2.8072,2.8064,2.8058,2.8048,2.8038,2.8027,2.8018,2.8006,2.7991,2.7977,2.7967,2.7962,2.7957,2.7964,2.7957,2.7937,2.7934,2.793,2.7931,2.7964,2.7964,2.7978,2.7979,2.7979]}]]